Погода в Виге

Россия / Костромская область     59°05′36″N   43°17′23″E
темп.,
°C
ветер,
м/с
пор.,
м/с
влажн.,
%
обл.,
%
осадки,
мм/ч
давл.,
гПа
погр.,
м
17 апреля, сб
сб1700:00+2всв27884 0.0 1031131
03:00+1всв25880 0.0 103287
06:000всв26890 0.0 1032117
09:00+8всв36580 0.0 1031581
12:00+10всв34485 0.0 10311353
15:00+11св33455 0.0 10301481
18:00+9св24625 0.0 1028102
21:00+4св26815 0.0 1029113
18 апреля, вс
вс1800:00+3св23855 0.0 102947
03:00+2ссв238580 0.0 102955
06:00+2св2883100 0.0 1029224
09:00+6св4773100 0.0 1029635
12:00+7св5667100 0.0 10301149
15:00+6всв4760100 0.0 10311243
18:00+5всв4853100 0.0 1031874
21:00+2всв3106797 0.0 1032362
19 апреля, пн
пн1900:000всв3107619 0.0 1034330
03:00−1всв310770 0.0 1034349
06:00−1всв310710 0.0 1035388
09:00+4в58430 0.0 10351257
12:00+6в57375 0.0 10341657
15:00+7в463639 0.0 10341750
18:00+6в474623 0.0 1034834
21:00+1в2968100 0.0 1035207
20 апреля, вт
вт2000:00−1в210735 0.0 1035242
03:00−1в310740 0.0 1035247
06:000в310670 0.0 1034371
09:00+5вюв583524 0.0 10341076
12:00+8вюв58305 0.0 10321487
15:00+9вюв58325 0.0 10301702
18:00+8вюв48436 0.0 10281015
21:00+4вюв41357100 0.0 1027554
21 апреля, ср
ср2100:00+3вюв51457100 0.0 1025610
03:00+2вюв51557100 0.0 1023698
06:00+3вюв61756100 0.0 1020826
09:00+2юв71778100 0.6 1018942
12:00+2юв71795100 1.3 1017819
15:00+3юв71587100 1.6 1015929
18:00+3юв61591100 0.1 1013909
21:00+3юв71896100 0.6 10121215